Location: Erfurt
(50.9688°N, 11.0193°E)
Time: 10:38:25
(UTC+01:00)

ISS - Pass Details

Date: 06 January 2018
Orbit: 402 x 406 km, 51.6° (Epoch: 16 January)

Event Time Altitude Azimuth Distance (km) Brightness Sun altitude
Exits shadow 06:48:15 25° 281° (W) 859 -2.8 -13.3°
Maximum altitude 06:50:01 81° 6° (N) 416 -3.9 -13.0°
Drops below altitude 10° 06:53:18 10° 95° (E) 1,468 0.3 -12.5°
Sets 06:55:24 0° 96° (E) 2,328 1.7 -12.2°
